RYR6AJ LHBP-EPMO

Flight info

Callsign RYR6AJ
Flight time 1h 5m
Altitude 37000
Route LITKU Y301 KALIF DCT KELEL DCT ORTEB DCT KONZI DCT LOGDA
Aircraft B738/M-SDE2E3FGHIRWXY/LB1

Departure

Time 2026-04-14 13:05
Airport Budapest Liszt Ferenc International Airport (LHBP)

Arrival

Time 2026-04-14 14:10
Airport Warsaw Modlin Airport (EPMO)
Time Latitude Longitude Altitude Speed Heading
2026-04-14 12:39 47.43477 19.26530 457 ft 0 kts 222°
2026-04-14 12:58 47.43481 19.26535 457 ft 4 kts 223°
2026-04-14 12:58 47.43499 19.26564 457 ft 4 kts 237°
2026-04-14 12:58 47.43508 19.26597 453 ft 4 kts 282°
2026-04-14 12:58 47.43503 19.26612 455 ft 1 kts 312°
2026-04-14 13:01 47.43505 19.26609 455 ft 2 kts 312°
2026-04-14 13:01 47.43540 19.26552 457 ft 13 kts 313°
2026-04-14 13:01 47.43622 19.26422 457 ft 20 kts 313°
2026-04-14 13:02 47.43720 19.26378 454 ft 17 kts 40°
2026-04-14 13:02 47.43817 19.26372 457 ft 16 kts 314°
2026-04-14 13:02 47.43891 19.26252 457 ft 16 kts 312°
2026-04-14 13:02 47.43964 19.26136 457 ft 16 kts 313°
2026-04-14 13:03 47.44046 19.26002 456 ft 19 kts 312°
2026-04-14 13:03 47.44136 19.25857 457 ft 19 kts 313°
2026-04-14 13:03 47.44222 19.25720 457 ft 18 kts 312°
2026-04-14 13:03 47.44309 19.25589 457 ft 17 kts 325°
2026-04-14 13:04 47.44422 19.25569 459 ft 17 kts 19°
2026-04-14 13:04 47.44501 19.25683 472 ft 16 kts 70°
2026-04-14 13:04 47.44488 19.25844 474 ft 21 kts 127°
2026-04-14 13:04 47.44239 19.26251 471 ft 90 kts 133°
2026-04-14 13:05 47.43665 19.27173 481 ft 150 kts 133°
2026-04-14 13:05 47.42930 19.28362 1079 ft 160 kts 129°
2026-04-14 13:05 47.42201 19.29659 1834 ft 167 kts 124°
2026-04-14 13:05 47.41606 19.31144 2704 ft 168 kts 118°
2026-04-14 13:06 47.41045 19.32670 3633 ft 169 kts 119°
2026-04-14 13:06 47.40442 19.34244 4249 ft 190 kts 122°
2026-04-14 13:06 47.39742 19.36057 4468 ft 216 kts 122°
2026-04-14 13:06 47.38969 19.38071 4895 ft 232 kts 121°
2026-04-14 13:07 47.38382 19.40425 4941 ft 262 kts 96°
2026-04-14 13:07 47.38740 19.43081 5269 ft 273 kts 66°
2026-04-14 13:07 47.39873 19.45378 6177 ft 280 kts 49°
2026-04-14 13:07 47.41452 19.47092 7031 ft 290 kts 22°
2026-04-14 13:08 47.43437 19.47670 7946 ft 293 kts
2026-04-14 13:08 47.45476 19.47988 8840 ft 297 kts
2026-04-14 13:08 47.47545 19.48273 9741 ft 300 kts
2026-04-14 13:08 47.49644 19.48558 10473 ft 309 kts
2026-04-14 13:09 47.51875 19.48871 10696 ft 336 kts
2026-04-14 13:09 47.54256 19.49215 11188 ft 349 kts
2026-04-14 13:09 47.56692 19.49575 11952 ft 354 kts
2026-04-14 13:09 47.59147 19.49944 12795 ft 356 kts
2026-04-14 13:10 47.61623 19.50320 13626 ft 360 kts
2026-04-14 13:10 47.63281 19.50574 14139 ft 363 kts
2026-04-14 13:10 47.66661 19.51094 15102 ft 368 kts
2026-04-14 13:10 47.69218 19.51488 15849 ft 371 kts
2026-04-14 13:11 47.71795 19.51886 16556 ft 374 kts
2026-04-14 13:11 47.74397 19.52289 17274 ft 378 kts
2026-04-14 13:11 47.77021 19.52695 18020 ft 380 kts
2026-04-14 13:11 47.78766 19.52965 18483 ft 382 kts
2026-04-14 13:12 47.81417 19.53375 19092 ft 385 kts
2026-04-14 13:12 47.84090 19.53790 19715 ft 387 kts
2026-04-14 13:12 47.86776 19.54207 20318 ft 390 kts
2026-04-14 13:12 47.89483 19.54629 20928 ft 393 kts
2026-04-14 13:13 47.92213 19.55056 21521 ft 396 kts
2026-04-14 13:13 47.94962 19.55485 22130 ft 398 kts
2026-04-14 13:13 47.97725 19.55916 22728 ft 400 kts
2026-04-14 13:13 48.00505 19.56350 23301 ft 403 kts
2026-04-14 13:14 48.03302 19.56787 23831 ft 406 kts
2026-04-14 13:14 48.06122 19.57228 24293 ft 409 kts
2026-04-14 13:14 48.08962 19.57673 24741 ft 412 kts
2026-04-14 13:14 48.11821 19.58124 25167 ft 415 kts
2026-04-14 13:15 48.14703 19.58578 25593 ft 418 kts
2026-04-14 13:15 48.17601 19.59034 26009 ft 421 kts
2026-04-14 13:15 48.20524 19.59493 26429 ft 423 kts
2026-04-14 13:15 48.23467 19.59887 26827 ft 426 kts
2026-04-14 13:16 48.26426 19.59762 27200 ft 427 kts 355°
2026-04-14 13:16 48.29401 19.59427 27599 ft 430 kts 354°
2026-04-14 13:16 48.32398 19.59062 27985 ft 433 kts 354°
2026-04-14 13:16 48.35407 19.58715 28332 ft 436 kts 354°
2026-04-14 13:17 48.38448 19.58393 28708 ft 439 kts 355°
2026-04-14 13:17 48.41499 19.58091 29059 ft 442 kts 355°
2026-04-14 13:17 48.44579 19.57790 29421 ft 444 kts 355°
2026-04-14 13:17 48.47675 19.57621 29770 ft 448 kts
2026-04-14 13:18 48.50777 19.58182 30094 ft 452 kts 11°
2026-04-14 13:18 48.53813 19.59460 30404 ft 455 kts 20°
2026-04-14 13:18 48.56712 19.61415 30689 ft 457 kts 25°
2026-04-14 13:18 48.59575 19.63550 30975 ft 459 kts 26°
2026-04-14 13:19 48.62428 19.65728 31274 ft 460 kts 26°
2026-04-14 13:19 48.65284 19.67908 31643 ft 459 kts 26°
2026-04-14 13:19 48.68134 19.70063 32077 ft 457 kts 26°
2026-04-14 13:19 48.70970 19.72187 32479 ft 455 kts 26°
2026-04-14 13:20 48.73816 19.74305 32817 ft 455 kts 26°
2026-04-14 13:20 48.76659 19.76415 33138 ft 455 kts 26°
2026-04-14 13:20 48.79504 19.78524 33521 ft 455 kts 26°
2026-04-14 13:20 48.82341 19.80629 33929 ft 453 kts 26°
2026-04-14 13:21 48.85170 19.82730 34265 ft 452 kts 26°
2026-04-14 13:21 48.87997 19.84834 34514 ft 453 kts 26°
2026-04-14 13:21 48.90827 19.86943 34739 ft 454 kts 26°
2026-04-14 13:21 48.93662 19.89060 34991 ft 454 kts 26°
2026-04-14 13:22 48.96496 19.91178 35258 ft 454 kts 26°
2026-04-14 13:22 48.99332 19.93301 35511 ft 454 kts 26°
2026-04-14 13:22 49.02163 19.95423 35738 ft 454 kts 26°
2026-04-14 13:22 49.04997 19.97550 35981 ft 454 kts 26°
2026-04-14 13:23 49.07834 19.99682 36219 ft 454 kts 26°
2026-04-14 13:23 49.10664 20.01811 36443 ft 454 kts 26°
2026-04-14 13:23 49.13498 20.03947 36682 ft 454 kts 26°
2026-04-14 13:23 49.16335 20.06087 36906 ft 454 kts 26°
2026-04-14 13:24 49.19168 20.08226 37098 ft 455 kts 26°
2026-04-14 13:24 49.27719 20.14702 37123 ft 456 kts 26°
2026-04-14 13:25 49.33459 20.18713 37119 ft 452 kts 18°
2026-04-14 13:26 49.45394 20.24476 37117 ft 448 kts 16°
2026-04-14 13:26 49.51339 20.27366 37123 ft 448 kts 17°
2026-04-14 13:27 49.57274 20.30311 37124 ft 448 kts 17°
2026-04-14 13:27 49.63317 20.33329 37129 ft 449 kts 17°
2026-04-14 13:28 49.69173 20.36262 37124 ft 451 kts 17°
2026-04-14 13:28 49.75143 20.39257 37122 ft 452 kts 17°
2026-04-14 13:29 49.81140 20.42272 37123 ft 454 kts 17°
2026-04-14 13:29 49.87156 20.45305 37128 ft 455 kts 17°
2026-04-14 13:30 49.93177 20.48349 37121 ft 456 kts 17°
2026-04-14 13:30 49.99209 20.51407 37135 ft 456 kts 17°
2026-04-14 13:31 50.05232 20.54468 37128 ft 455 kts 17°
2026-04-14 13:31 50.11303 20.57176 37125 ft 452 kts
2026-04-14 13:32 50.17544 20.57928 37143 ft 450 kts
2026-04-14 13:32 50.23791 20.58446 37138 ft 449 kts
2026-04-14 13:33 50.30013 20.59035 37143 ft 448 kts
2026-04-14 13:33 50.36230 20.59675 37146 ft 447 kts
2026-04-14 13:34 50.42487 20.60328 36265 ft 450 kts
2026-04-14 13:34 50.45612 20.60654 35696 ft 450 kts
2026-04-14 13:34 50.48738 20.60980 35102 ft 450 kts
2026-04-14 13:35 50.51870 20.61306 34491 ft 451 kts
2026-04-14 13:35 50.55003 20.61632 33836 ft 452 kts
2026-04-14 13:35 50.58147 20.61960 33141 ft 454 kts
2026-04-14 13:35 50.61301 20.62290 32436 ft 454 kts
2026-04-14 13:36 50.64458 20.62619 31747 ft 455 kts
2026-04-14 13:36 50.67608 20.62949 31233 ft 452 kts
2026-04-14 13:36 50.70734 20.63278 30751 ft 448 kts
2026-04-14 13:36 50.73829 20.63603 30281 ft 444 kts
2026-04-14 13:37 50.76897 20.63926 29738 ft 440 kts
2026-04-14 13:37 50.79934 20.64246 29238 ft 435 kts
2026-04-14 13:37 50.82938 20.64563 28750 ft 431 kts
2026-04-14 13:37 50.85915 20.64877 28260 ft 427 kts
2026-04-14 13:38 50.88869 20.65189 27766 ft 424 kts
2026-04-14 13:38 50.91801 20.65498 27285 ft 421 kts
2026-04-14 13:38 50.94715 20.65807 26804 ft 418 kts
2026-04-14 13:38 50.97605 20.66113 26335 ft 415 kts
2026-04-14 13:39 51.00471 20.66417 25869 ft 412 kts
2026-04-14 13:39 51.03325 20.66720 25403 ft 410 kts
2026-04-14 13:39 51.06166 20.67022 24933 ft 408 kts
2026-04-14 13:39 51.08993 20.67323 24470 ft 406 kts
2026-04-14 13:40 51.11814 20.67624 23985 ft 405 kts
2026-04-14 13:40 51.14619 20.67923 23481 ft 404 kts
2026-04-14 13:40 51.17416 20.68222 22959 ft 401 kts
2026-04-14 13:40 51.20191 20.68520 22466 ft 399 kts
2026-04-14 13:41 51.22947 20.68815 22004 ft 396 kts
2026-04-14 13:41 51.25648 20.69109 21553 ft 393 kts
2026-04-14 13:41 51.28308 20.70118 21121 ft 396 kts 21°
2026-04-14 13:41 51.30618 20.72423 20948 ft 390 kts 38°
2026-04-14 13:42 51.32613 20.75295 20760 ft 383 kts 40°
2026-04-14 13:42 51.34547 20.78206 20557 ft 381 kts 41°
2026-04-14 13:42 51.36510 20.81177 20371 ft 387 kts 41°
2026-04-14 13:42 51.38456 20.84108 20179 ft 391 kts 40°
2026-04-14 13:43 51.40467 20.87114 19963 ft 388 kts 40°
2026-04-14 13:43 51.42409 20.90003 19765 ft 385 kts 40°
2026-04-14 13:43 51.44371 20.92913 19565 ft 383 kts 40°
2026-04-14 13:43 51.46321 20.95803 19370 ft 381 kts 39°
2026-04-14 13:44 51.48262 20.98680 19186 ft 379 kts 39°
2026-04-14 13:44 51.50199 21.01552 18987 ft 378 kts 39°
2026-04-14 13:44 51.52128 21.04419 18795 ft 377 kts 39°
2026-04-14 13:44 51.54053 21.07282 18607 ft 377 kts 39°
2026-04-14 13:45 51.55971 21.10137 18388 ft 376 kts 39°
2026-04-14 13:45 51.57892 21.13000 18186 ft 376 kts 39°
2026-04-14 13:45 51.59807 21.15858 17973 ft 375 kts 39°
2026-04-14 13:45 51.61714 21.18711 17783 ft 374 kts 39°
2026-04-14 13:46 51.63613 21.21555 17589 ft 373 kts 40°
2026-04-14 13:46 51.65506 21.24396 17400 ft 372 kts 40°
2026-04-14 13:46 51.67393 21.27233 17209 ft 370 kts 40°
2026-04-14 13:46 51.69271 21.30059 17021 ft 369 kts 40°
2026-04-14 13:47 51.71146 21.32883 16835 ft 368 kts 40°
2026-04-14 13:47 51.73059 21.35769 16637 ft 367 kts 40°
2026-04-14 13:47 51.74869 21.38502 16460 ft 365 kts 40°
2026-04-14 13:47 51.76719 21.41299 16275 ft 364 kts 40°
2026-04-14 13:48 51.78562 21.44089 16091 ft 363 kts 40°
2026-04-14 13:48 51.80397 21.46869 15907 ft 361 kts 40°
2026-04-14 13:48 51.82228 21.49647 15727 ft 360 kts 40°
2026-04-14 13:48 51.84052 21.52417 15539 ft 359 kts 40°
2026-04-14 13:49 51.85893 21.55215 15365 ft 358 kts 40°
2026-04-14 13:49 51.87683 21.57939 15173 ft 358 kts 40°
2026-04-14 13:49 51.89537 21.60694 14995 ft 356 kts 34°
2026-04-14 13:49 51.91701 21.62499 14798 ft 347 kts 12°
2026-04-14 13:50 51.94054 21.62993 14636 ft 338 kts 353°
2026-04-14 13:50 51.96367 21.62498 14485 ft 334 kts 347°
2026-04-14 13:50 51.98650 21.61815 14301 ft 333 kts 346°
2026-04-14 13:50 52.00920 21.61107 14124 ft 333 kts 346°
2026-04-14 13:51 52.03193 21.60411 13948 ft 332 kts 346°
2026-04-14 13:51 52.05469 21.59730 13758 ft 332 kts 346°
2026-04-14 13:51 52.07740 21.59063 13580 ft 331 kts 347°
2026-04-14 13:51 52.10007 21.58403 13400 ft 331 kts 347°
2026-04-14 13:52 52.12271 21.57749 13236 ft 330 kts 347°
2026-04-14 13:52 52.13763 21.57318 13120 ft 327 kts 347°
2026-04-14 13:52 52.15974 21.56681 12945 ft 318 kts 347°
2026-04-14 13:52 52.18124 21.56060 12777 ft 309 kts 347°
2026-04-14 13:53 52.20208 21.55424 12619 ft 300 kts 342°
2026-04-14 13:53 52.22138 21.54316 12472 ft 289 kts 334°
2026-04-14 13:53 52.23955 21.52999 12331 ft 284 kts 332°
2026-04-14 13:53 52.25744 21.51664 12189 ft 282 kts 332°
2026-04-14 13:54 52.27529 21.50349 12064 ft 282 kts 333°
2026-04-14 13:54 52.29304 21.48942 11726 ft 287 kts 322°
2026-04-14 13:54 52.30556 21.46449 11371 ft 284 kts 294°
2026-04-14 13:54 52.31351 21.43514 11136 ft 280 kts 292°
2026-04-14 13:55 52.32118 21.40631 10962 ft 274 kts 292°
2026-04-14 13:55 52.32877 21.37798 10802 ft 271 kts 292°
2026-04-14 13:55 52.33636 21.34991 10662 ft 269 kts 292°
2026-04-14 13:55 52.34398 21.32202 10507 ft 268 kts 292°
2026-04-14 13:56 52.35162 21.29419 10371 ft 268 kts 292°
2026-04-14 13:56 52.35923 21.26662 10216 ft 268 kts 293°
2026-04-14 13:56 52.36695 21.23869 10067 ft 271 kts 293°
2026-04-14 13:56 52.37474 21.21053 9909 ft 273 kts 293°
2026-04-14 13:57 52.38257 21.18222 9747 ft 273 kts 293°
2026-04-14 13:57 52.39038 21.15400 9597 ft 272 kts 293°
2026-04-14 13:57 52.39818 21.12579 9449 ft 272 kts 293°
2026-04-14 13:57 52.40596 21.09760 9296 ft 272 kts 293°
2026-04-14 13:58 52.41377 21.06936 9147 ft 271 kts 293°
2026-04-14 13:58 52.42153 21.04124 9008 ft 271 kts 293°
2026-04-14 13:58 52.42928 21.01309 8862 ft 271 kts 292°
2026-04-14 13:58 52.43701 20.98503 8711 ft 270 kts 292°
2026-04-14 13:59 52.44471 20.95704 8576 ft 269 kts 292°
2026-04-14 13:59 52.45229 20.92943 8429 ft 269 kts 292°
2026-04-14 13:59 52.45998 20.90141 8280 ft 269 kts 292°
2026-04-14 13:59 52.46775 20.87301 8140 ft 269 kts 292°
2026-04-14 14:00 52.47542 20.84491 7974 ft 270 kts 292°
2026-04-14 14:00 52.48308 20.81684 7846 ft 270 kts 291°
2026-04-14 14:00 52.49067 20.78901 7703 ft 271 kts 292°
2026-04-14 14:00 52.49848 20.76044 7550 ft 271 kts 291°
2026-04-14 14:01 52.50621 20.73211 7408 ft 271 kts 291°
2026-04-14 14:01 52.51381 20.70417 7251 ft 274 kts 291°
2026-04-14 14:01 52.52175 20.67487 6951 ft 284 kts 291°
2026-04-14 14:01 52.52966 20.64510 6741 ft 283 kts 287°
2026-04-14 14:02 52.53223 20.61394 6553 ft 272 kts 263°
2026-04-14 14:02 52.52983 20.58359 6434 ft 265 kts 258°
2026-04-14 14:02 52.52684 20.55376 6271 ft 265 kts 257°
2026-04-14 14:02 52.52380 20.52389 6127 ft 265 kts 257°
2026-04-14 14:03 52.52080 20.49397 5977 ft 265 kts 257°
2026-04-14 14:03 52.51787 20.46416 5669 ft 266 kts 258°
2026-04-14 14:03 52.51494 20.43408 5347 ft 267 kts 258°
2026-04-14 14:03 52.51203 20.40401 5132 ft 265 kts 258°
2026-04-14 14:04 52.50915 20.37409 4838 ft 266 kts 258°
2026-04-14 14:04 52.50621 20.34403 4522 ft 267 kts 255°
2026-04-14 14:04 52.49892 20.31691 4345 ft 258 kts 226°
2026-04-14 14:04 52.48501 20.29958 4283 ft 249 kts 200°
2026-04-14 14:05 52.46834 20.29359 4062 ft 246 kts 178°
2026-04-14 14:05 52.45130 20.29608 3801 ft 246 kts 170°
2026-04-14 14:05 52.43469 20.30133 3561 ft 241 kts 159°
2026-04-14 14:05 52.42203 20.31770 3462 ft 232 kts 122°
2026-04-14 14:06 52.41880 20.34273 3358 ft 225 kts 84°
2026-04-14 14:06 52.42299 20.36655 3269 ft 210 kts 77°
2026-04-14 14:06 52.42653 20.38880 3164 ft 194 kts 83°
2026-04-14 14:06 52.42882 20.40975 3058 ft 179 kts 85°
2026-04-14 14:07 52.43064 20.42925 2871 ft 167 kts 86°
2026-04-14 14:07 52.43229 20.44741 2641 ft 156 kts 85°
2026-04-14 14:07 52.43382 20.46415 2461 ft 146 kts 85°
2026-04-14 14:07 52.43530 20.48034 2258 ft 142 kts 86°
2026-04-14 14:08 52.43675 20.49616 2074 ft 139 kts 86°
2026-04-14 14:08 52.43823 20.51225 1878 ft 145 kts 85°
2026-04-14 14:08 52.43974 20.52865 1668 ft 145 kts 85°
2026-04-14 14:08 52.44124 20.54478 1482 ft 141 kts 85°
2026-04-14 14:09 52.44270 20.56051 1278 ft 138 kts 85°
2026-04-14 14:09 52.44410 20.57603 1075 ft 137 kts 85°
2026-04-14 14:09 52.44553 20.59135 883 ft 134 kts 84°
2026-04-14 14:09 52.44691 20.60650 714 ft 136 kts 82°
2026-04-14 14:10 52.44841 20.62167 520 ft 137 kts 81°
2026-04-14 14:10 52.44977 20.63688 349 ft 130 kts 81°
2026-04-14 14:10 52.45095 20.64933 333 ft 82 kts 81°
2026-04-14 14:10 52.45155 20.65555 335 ft 32 kts 81°
2026-04-14 14:11 52.45180 20.65811 339 ft 17 kts 81°
2026-04-14 14:11 52.45163 20.65982 337 ft 16 kts 147°
2026-04-14 14:11 52.45061 20.66048 336 ft 16 kts 160°
2026-04-14 14:11 52.44961 20.66107 337 ft 15 kts 160°
2026-04-14 14:12 52.44878 20.66106 337 ft 14 kts 230°
2026-04-14 14:12 52.44854 20.65953 337 ft 14 kts 261°
2026-04-14 14:12 52.44840 20.65802 337 ft 13 kts 261°
2026-04-14 14:12 52.44827 20.65655 337 ft 13 kts 262°
2026-04-14 14:13 52.44815 20.65513 336 ft 11 kts 262°
2026-04-14 14:13 52.44796 20.65450 334 ft 6 kts 218°
2026-04-14 14:13 52.44774 20.65430 336 ft 1 kts 207°
2026-04-14 14:13 52.44766 20.65423 337 ft 2 kts 207°
2026-04-14 14:14 52.44758 20.65417 337 ft 0 kts 207°